Location: Newark
(45.8667°N, 9.7333°E)
Time: 18:03:52
(UTC+00:00)

A-11 Canister half - Pass Details

Date: 20 January 2020
Orbit: 1517 x 1683 km, 47.2° (Epoch: 22 February)

Event Time Altitude Azimuth Distance (km) Brightness Sun altitude
Rises 06:50:34 0° 292° (WNW) 4,667 - -1.6°
Exits shadow 06:51:04 - 292° (WNW) 4,512 10.8 -1.5°
Reaches altitude 10° 06:53:47 10° 286° (WNW) 3,688 10.4 -1.1°
Maximum altitude 07:02:15 42° 220° (SW) 2,086 9.7 0.2°
Drops below altitude 10° 07:10:55 10° 154° (SSE) 3,761 12.2 1.5°
Sets 07:14:14 0° 147° (SSE) 4,767 13.0 2.0°
